[[{"header":{"parameterUnit":"m.s-1","parameterCategory":1,"la1":30.2991,"la2":30.254,"lo1":-89.0895,"lo2":-89.0444,"dy":0.0017,"dx":0.0017,"nx":28,"ny":28,"refTime":"2025-12-31T03:00:00:Z","depth":0,"parameterNumber":2,"parameterNumberName":"U-component_of_WINDS"},"data":[0,0,0,0,0,0,0,0,0,0,0,0,0,0,0,0,0,0,0,0,0,0,0,0,0,0,0,0,0,0,0,0,0,0,0,0,0,0,0,0,0,0,0,0,0,0,0,0,0,0,0,0,0,0,0,0,0,0,0.8184,0.8184,0,0.8125,0.8124,0.8124,0.8111,0.8111,0.8111,0.8112,0.8048,0.8046,0.8044,0,0,0,0,0,0,0,0,0,0,0,0,0,0.8285,0.8283,0.8185,0.8184,0.8183,0.8125,0.8124,0.8123,0.8111,0.8111,0.8112,0.8112,0.8048,0.8046,0.8043,0,0,0,0,0,0,0,0,0,0,0,0,0,0.8235,0.8282,0.8185,0.817,0.8168,0.8125,0.8124,0.8123,0.811,0.8111,0.8112,0.8112,0.8049,0.8046,0.8043,0.801,0,0,0.8033,0.8032,0,0,0,0,0,0,0,0,0.8238,0.8231,0.8173,0.8171,0.8168,0.8126,0.8136,0.8085,0.811,0.8132,0.8112,0.8113,0.8073,0.8068,0.8055,0.8007,0.8004,0.8033,0.8031,0.803,0.8029,0,0,0,0,0,0,0,0.8241,0.8233,0.8161,0.8172,0.8169,0.8165,0.8159,0.8126,0.8099,0.813,0.8129,0.8122,0.8072,0.8058,0.8054,0.8003,0.8033,0.803,0.8028,0.8027,0.7926,0.7925,0,0,0,0,0,0,0.8247,0.8236,0.8163,0.8159,0.8205,0.8163,0.8156,0.8139,0.81,0.8095,0.8122,0.8122,0.8063,0.8057,0.8051,0.801,0.803,0.8027,0.8025,0.7927,0.7926,0.7925,0,0,0,0,0,0,0.825,0.8241,0.8165,0.8197,0.8188,0.816,0.8142,0.8137,0.8124,0.8094,0.8088,0.8113,0.8064,0.8056,0.8021,0.8008,0.8025,0.8022,0.7928,0.7926,0.7925,0.7928,0,0,0,0,0,0,0.8253,0.8242,0.823,0.8197,0.8186,0.8136,0.8141,0.8136,0.8119,0.8118,0.8084,0.8079,0.8064,0.8026,0.8018,0.8004,0.802,0.7929,0.7927,0.7926,0.7929,0.7927,0.7925,0,0,0,0,0,0.8256,0.8232,0.8229,0.822,0.817,0.8136,0.8129,0.8113,0.8118,0.8105,0.8086,0.808,0.8011,0.8022,0.8013,0.7998,0.7929,0.7928,0.7926,0.793,0.7927,0.7925,0,0,0,0,0,0,0.8262,0.8227,0.8224,0.8188,0.8165,0.8133,0.8116,0.8111,0.8085,0.8085,0.8066,0.8058,0.8024,0.8008,0.8021,0.7964,0.797,0.7967,0.7976,0.7974,0.7972,0.7976,0.8017,0,0,0,0,0,0.8259,0.8235,0.8206,0.8177,0.8166,0.8144,0.8128,0.8118,0.8092,0.8082,0.806,0.8035,0.8008,0.799,0.7963,0.7927,0.7919,0.7912,0.7911,0.7909,0.7906,0.7885,0.7882,0.7919,0.7919,0.7919,0,0,0.8253,0.8231,0.8217,0.8178,0.8159,0.8133,0.8135,0.8108,0.8089,0.8078,0.8043,0.8027,0.7997,0.7962,0.7945,0.7947,0.7894,0.7907,0.7906,0.7903,0.7883,0.788,0.7877,0.7918,0.7918,0.7918,0,0,0.8228,0.821,0.8184,0.8165,0.8137,0.8122,0.8116,0.8086,0.8074,0.804,0.8032,0.8008,0.7962,0.7941,0.7925,0.7894,0.7888,0.7886,0.7876,0.7857,0.7854,0.7851,0.784,0.7836,0.7883,0.7883,0.7883,0,0.8223,0.8186,0.8171,0.8145,0.8128,0.8119,0.8092,0.8074,0.8038,0.8026,0.803,0.7972,0.7951,0.7911,0.7903,0.7891,0.7883,0.7889,0.7856,0.7853,0.785,0.7839,0.7835,0.7883,0.7883,0.7883,0.7883,0,0.8181,0.8155,0.8138,0.8105,0.8086,0.806,0.8041,0.8023,0.8015,0.8,0.7966,0.7941,0.791,0.79,0.7891,0.7858,0.786,0.786,0.7865,0.7847,0.7836,0.7832,0.7883,0.7883,0.7883,0.7883,0,0,0.8156,0.8117,0.8111,0.8096,0.8064,0.8044,0.8017,0.7987,0.7973,0.7949,0.7925,0.7887,0.7887,0.7868,0.7858,0.7841,0.7818,0.7842,0.7841,0.7838,0.778,0.7779,0.7775,0.7814,0.7813,0.7813,0.7782,0,0.8127,0.808,0.8067,0.8027,0.8003,0.7994,0.7971,0.7949,0.7935,0.7912,0.7896,0.7869,0.7871,0.786,0.7843,0.7824,0.7806,0.7826,0.7791,0.779,0.7798,0.7769,0.7768,0.774,0.7778,0.7777,0.7776,0,0.8087,0.8063,0.8021,0.7994,0.7983,0.7962,0.7934,0.7913,0.7888,0.7879,0.7859,0.785,0.7821,0.783,0.779,0.7804,0.779,0.7779,0.7777,0.7772,0.7781,0.7762,0.7731,0.7726,0.777,0.777,0.7771,0,0.8072,0.803,0.7999,0.7987,0.7954,0.794,0.7926,0.7902,0.7885,0.786,0.7849,0.7821,0.7806,0.7784,0.7768,0.7776,0.773,0.7737,0.772,0.7721,0.771,0.771,0.7674,0.7702,0.7702,0.7702,0.7703,0,0.804,0.8014,0.7992,0.7973,0.7945,0.793,0.7901,0.7887,0.7866,0.7843,0.7834,0.7813,0.7794,0.777,0.7757,0.7726,0.7719,0.7711,0.7707,0.7711,0.7712,0.7699,0.7701,0.7701,0.7702,0.7702,0.7702,0,0.8018,0.8002,0.7968,0.7941,0.7934,0.7914,0.789,0.7871,0.7857,0.7829,0.7822,0.7799,0.7771,0.7754,0.7717,0.7709,0.7675,0.7672,0.7683,0.7681,0.7666,0.7667,0.762,0.7613,0.7646,0.7646,0.7646,0,0.7998,0.7978,0.795,0.7935,0.7921,0.7896,0.788,0.7865,0.7848,0.7819,0.7803,0.7775,0.7751,0.7707,0.7687,0.7659,0.7656,0.7641,0.7651,0.7655,0.7654,0.7655,0.7653,0.7639,0.7638,0.7638,0.7638,0,0.7964,0.7958,0.7935,0.7909,0.789,0.7868,0.7847,0.7835,0.7817,0.7798,0.777,0.7752,0.7716,0.7687,0.7659,0.7643,0.7637,0.7635,0.763,0.7633,0.7639,0.7635,0.7677,0.7636,0.7636,0.7636,0.7636,0.7637,0.7942,0.7924,0.7901,0.7876,0.7859,0.784,0.7821,0.7805,0.7782,0.7752,0.7745,0.7715,0.7691,0.7652,0.7636,0.7613,0.7614,0.7607,0.7605,0.7603,0.7602,0.7645,0.7607,0.7607,0.7607,0.7608,0.7608,0,0.7907,0.7892,0.7869,0.7841,0.7821,0.7819,0.7796,0.7779,0.7753,0.7732,0.7709,0.7677,0.765,0.7629,0.7601,0.7586,0.7583,0.758,0.758,0.7576,0.7602,0.7609,0.7583,0.7583,0.7583,0.7583,0.7583,0.7583,0.7886,0.7856,0.7847,0.7809,0.7794,0.7766,0.7753,0.7735,0.7718,0.7683,0.7661,0.7648,0.7626,0.7597,0.7572,0.7567,0.7557,0.7553,0.7547,0.7572,0.7574,0.7577,0.7583,0.7552,0.7552,0.7523,0.7523,0.7522]},{"header":{"parameterUnit":"m.s-1","parameterCategory":1,"la1":30.2991,"la2":30.254,"lo1":-89.0895,"lo2":-89.0444,"dy":0.0017,"dx":0.0017,"nx":28,"ny":28,"refTime":"2025-12-31T03:00:00:Z","depth":0,"parameterNumber":3,"parameterNumberName":"V-component_of_WINDS"},"data":[0,0,0,0,0,0,0,0,0,0,0,0,0,0,0,0,0,0,0,0,0,0,0,0,0,0,0,0,0,0,0,0,0,0,0,0,0,0,0,0,0,0,0,0,0,0,0,0,0,0,0,0,0,0,0,0,0,0,-4.4287,-4.4289,0,-4.4507,-4.451,-4.4512,-4.4479,-4.4475,-4.4471,-4.4468,-4.4691,-4.4701,-4.471,0,0,0,0,0,0,0,0,0,0,0,0,0,-4.3834,-4.3842,-4.4286,-4.4289,-4.4292,-4.4507,-4.451,-4.4513,-4.4479,-4.4475,-4.447,-4.4466,-4.4688,-4.47,-4.4711,0,0,0,0,0,0,0,0,0,0,0,0,0,-4.404,-4.3845,-4.4286,-4.4301,-4.4305,-4.4506,-4.451,-4.4514,-4.448,-4.4475,-4.4469,-4.4464,-4.4685,-4.4698,-4.4712,-4.4912,0,0,-4.4756,-4.4762,0,0,0,0,0,0,0,0,-4.4028,-4.4056,-4.4296,-4.43,-4.4305,-4.446,-4.4432,-4.4647,-4.4482,-4.4414,-4.4467,-4.4461,-4.4619,-4.4638,-4.4692,-4.4923,-4.4932,-4.4757,-4.4766,-4.4772,-4.4776,0,0,0,0,0,0,0,-4.4014,-4.4047,-4.4374,-4.43,-4.4305,-4.4296,-4.4319,-4.4473,-4.4545,-4.4419,-4.4417,-4.4444,-4.462,-4.4678,-4.4697,-4.4935,-4.4757,-4.4769,-4.4778,-4.4783,-4.534,-4.5346,0,0,0,0,0,0,-4.3996,-4.4035,-4.4367,-4.438,-4.415,-4.4309,-4.4335,-4.4416,-4.4543,-4.4557,-4.4448,-4.4441,-4.4657,-4.468,-4.4704,-4.4946,-4.4772,-4.4785,-4.4793,-4.5334,-4.5342,-4.5348,0,0,0,0,0,0,-4.3986,-4.4026,-4.4358,-4.4207,-4.4249,-4.4323,-4.4414,-4.4423,-4.4481,-4.4565,-4.4578,-4.4495,-4.4653,-4.4684,-4.4861,-4.4954,-4.4791,-4.4804,-4.5327,-4.5336,-4.5345,-4.5432,0,0,0,0,0,0,-4.3973,-4.4022,-4.41,-4.4209,-4.4257,-4.4512,-4.4419,-4.4431,-4.4506,-4.4499,-4.4612,-4.4625,-4.4651,-4.484,-4.4875,-4.497,-4.4815,-4.5319,-4.5331,-4.5342,-4.5421,-4.5443,-4.5462,0,0,0,0,0,-4.3957,-4.4115,-4.4104,-4.4144,-4.4355,-4.4517,-4.4544,-4.4571,-4.4513,-4.4591,-4.4645,-4.4622,-4.4938,-4.4858,-4.4897,-4.4998,-4.5313,-4.5327,-4.5341,-4.5412,-4.5439,-4.5461,0,0,0,0,0,0,-4.4014,-4.413,-4.4119,-4.4317,-4.4407,-4.4511,-4.461,-4.4599,-4.4707,-4.4696,-4.4724,-4.475,-4.4929,-4.4981,-4.489,-4.5198,-4.5117,-4.514,-4.5157,-4.5184,-4.5204,-4.5188,-4.4827,0,0,0,0,0,-4.405,-4.4172,-4.4266,-4.4432,-4.4478,-4.4536,-4.4608,-4.4621,-4.4715,-4.4753,-4.482,-4.4912,-4.5032,-4.5111,-4.5226,-4.5428,-4.5452,-4.5517,-4.5537,-4.5553,-4.5573,-4.5683,-4.5713,-4.5395,-4.5395,-4.5395,0,0,-4.4125,-4.4203,-4.4279,-4.4445,-4.4517,-4.4642,-4.4569,-4.4705,-4.4797,-4.4774,-4.4944,-4.4997,-4.5101,-4.5291,-4.5378,-4.534,-4.5666,-4.5571,-4.5584,-4.5595,-4.5701,-4.5731,-4.5758,-4.5405,-4.5403,-4.5401,0,0,-4.4326,-4.4397,-4.4543,-4.4616,-4.4726,-4.4764,-4.4798,-4.4904,-4.4938,-4.511,-4.5094,-4.5204,-4.5411,-4.5486,-4.5551,-4.5779,-4.5761,-4.5815,-4.5922,-4.6029,-4.6054,-4.6077,-4.6158,-4.6187,-4.5834,-4.5834,-4.5834,0,-4.4405,-4.4594,-4.4619,-4.4757,-4.4831,-4.4815,-4.4962,-4.5032,-4.5173,-4.5224,-4.5179,-4.5437,-4.5506,-4.5713,-4.5769,-4.5822,-4.5862,-4.5803,-4.6049,-4.6072,-4.6093,-4.617,-4.6201,-4.584,-4.5839,-4.5839,-4.5838,0,-4.4686,-4.4817,-4.4921,-4.5059,-4.5144,-4.5285,-4.5332,-4.5414,-4.5419,-4.5461,-4.5636,-4.5718,-4.5849,-4.5899,-4.5906,-4.6108,-4.608,-4.6042,-4.5962,-4.6129,-4.6202,-4.6232,-4.5849,-4.5846,-4.5845,-4.5843,0,0,-4.493,-4.5079,-4.5117,-4.5179,-4.5298,-4.5399,-4.5539,-4.5668,-4.5738,-4.5836,-4.5954,-4.6128,-4.6093,-4.6167,-4.6181,-4.6275,-4.645,-4.6226,-4.6228,-4.6265,-4.6677,-4.6706,-4.674,-4.6439,-4.6445,-4.6449,-4.6669,0,-4.5142,-4.5391,-4.5418,-4.564,-4.5761,-4.5747,-4.5869,-4.5955,-4.5997,-4.6105,-4.6152,-4.6275,-4.622,-4.6264,-4.6357,-4.641,-4.6534,-4.6394,-4.6549,-4.6554,-4.6524,-4.6778,-4.6809,-4.7013,-4.6697,-4.6702,-4.6706,0,-4.5424,-4.553,-4.5764,-4.5865,-4.5917,-4.6027,-4.6146,-4.625,-4.6346,-4.637,-4.6453,-4.6454,-4.6598,-4.6511,-4.6709,-4.6614,-4.6678,-4.6714,-4.6722,-4.6738,-4.664,-4.6802,-4.7078,-4.7109,-4.6751,-4.6748,-4.6745,0,-4.5578,-4.5779,-4.5945,-4.5999,-4.6121,-4.6198,-4.6253,-4.6344,-4.6419,-4.6523,-4.6572,-4.6692,-4.6757,-4.6849,-4.6882,-4.6816,-4.7079,-4.6995,-4.7102,-4.7102,-4.7159,-4.7155,-4.745,-4.72,-4.7199,-4.7199,-4.7198,0,-4.5813,-4.5957,-4.6017,-4.6119,-4.6279,-4.6307,-4.6465,-4.6516,-4.6597,-4.6708,-4.6702,-4.6807,-4.6844,-4.6954,-4.6981,-4.7141,-4.717,-4.7193,-4.7199,-4.7195,-4.7192,-4.7238,-4.7225,-4.7207,-4.7205,-4.7204,-4.7202,0,-4.6013,-4.6059,-4.6239,-4.634,-4.6369,-4.6483,-4.6569,-4.6667,-4.6707,-4.6848,-4.6883,-4.6946,-4.7076,-4.7118,-4.7274,-4.7292,-4.7478,-4.7471,-4.7446,-4.7447,-4.7552,-4.7542,-4.7888,-4.7935,-4.7653,-4.7656,-4.7658,0,-4.616,-4.6271,-4.6384,-4.6458,-4.6516,-4.6635,-4.6712,-4.6744,-4.6824,-4.6941,-4.7025,-4.7153,-4.7258,-4.7465,-4.7525,-4.7644,-4.764,-4.7753,-4.7658,-4.7649,-4.7642,-4.7635,-4.7646,-4.7771,-4.7774,-4.7776,-4.7778,0,-4.6417,-4.6434,-4.6545,-4.6665,-4.6757,-4.6852,-4.6944,-4.7005,-4.705,-4.714,-4.7272,-4.7353,-4.7513,-4.764,-4.7761,-4.7816,-4.7805,-4.7807,-4.7838,-4.7835,-4.7816,-4.7828,-4.7495,-4.7799,-4.7797,-4.7796,-4.7794,-4.7794,-4.6595,-4.6693,-4.6787,-4.6911,-4.6984,-4.707,-4.7167,-4.7219,-4.7331,-4.7463,-4.7474,-4.7617,-4.771,-4.7872,-4.7932,-4.8044,-4.8012,-4.8057,-4.8069,-4.808,-4.8088,-4.7798,-4.8066,-4.8065,-4.8065,-4.8064,-4.8064,0,-4.6852,-4.6911,-4.7025,-4.7154,-4.7252,-4.7232,-4.7333,-4.7415,-4.7541,-4.7629,-4.7731,-4.7883,-4.8006,-4.8075,-4.8198,-4.8274,-4.8272,-4.8305,-4.83,-4.8313,-4.811,-4.807,-4.8305,-4.8305,-4.8305,-4.8305,-4.8304,-4.8304,-4.6996,-4.716,-4.7188,-4.7387,-4.7445,-4.7586,-4.7645,-4.7724,-4.7794,-4.7963,-4.8066,-4.811,-4.819,-4.8318,-4.843,-4.8447,-4.8492,-4.8529,-4.8543,-4.8352,-4.8327,-4.8304,-4.8267,-4.8539,-4.8539,-4.8737,-4.8739,-4.874]}]]